Location: Artiguedieu
(43.5000°N, 0.5454°E)
Time: 15:21:18
(UTC+00:00)

HuskySat-1 - Pass Details

Date: 04 October 2021
Orbit: 445 x 458 km, 51.6° (Epoch: 27 October)

Event Time Altitude Azimuth Distance (km) Brightness Sun altitude
Rises 20:07:44 0° 293° (WNW) 2,468 ? -28.3°
Reaches altitude 10° 20:10:13 10° 310° (NW) 1,598 ? -28.7°
Enters shadow 20:11:37 17° 329° (NNW) 1,221 ? -29.0°
